Showing default

GALILEO 18 (26E), 41862

Orbit data source: Space-Track

GALILEO 18 (26E), 41862 is a payload satellite owned by GNSS Agency (ESA) that was launched on Thu, 17 Nov 2016 UTC via an ARIANE 5ES launch vehicle from the French Guiana (FRGUI). Payload-class satellites include a variety of spacecraft equipped with specific instruments for various scientific and technological missions. These include communications satellites like Starlink; space stations such as the ISS; scientific satellites like the Hubble; Earth observation satellites from companies like Planet Labs, Umbra, and HawkEye 360; GPS; miniature CubeSats for education and research; and military/defense satellites.

Loading next visibility...
Identifier
41862, 2016-069D
Orbit
Active
Country
Flag of ESAESA
Related business
Manufacturer
OHB
Mission
Operational Civil Navigation
Bus & Motor
GALILEOSAT, AOCS
Mass
738 kg wet, 700 kg dry
Launch date (UTC)
2016-11-17 (10 years ago)
Launch vehicle
ARIANE 5ES
Launch site
French Guiana (FRGUI)
Object type
Payload
Rocket body
Debris
Shape & HBR
Box + 2 Pan, 7.3 m
Radar Cross Section
9.223 m², Large (>1 m²)

Expand to show TLE details & history
Last TLE update: 3 days ago

TLE from 3 days ago
0 GALILEO 18 (26E)
1 41862U 16069D   26253.16735568  .00000020  00000-0  00000-0 0  9994
2 41862  55.5429  98.7287 0002373 358.3065   1.7890  1.70474047 61094
Epoch: 2026-09-10T04:00Z
TLE epoch observation values (Epoch: 2026-09-10T04:00:59.530Z)
Latitude
0.00001°
Longitude
49.2848°
Altitude
23,215.444 km
Speed
3.671 km/s
True Right ascension
06h 34m 58s
True Declination
0° 00' 00"
Sunlit
Object was in daylight at epoch
Visualization orbit readout
Latitude
Unknown
Longitude
Unknown
Altitude
Unknown
Speed
Unknown
Apparent Right ascension
Unknown
Apparent Declination
Unknown
Sunlit
N/A
Visualization observer readout
Local Sidereal Time
07:58:52
Azimuth
Unknown
Elevation
Unknown
Doppler factor
Unknown
Orbital elements
Apogee altitude
23,229.19 km
Perigee altitude
23,215.142 km
Semi-major axis
29,600.303 km
Eccentricity
0.00024
Inclination
55.5429°
RAAN
98.7287°
Arg. of periapsis
358.3065°
True anomaly
1.78985°
Mean anomaly
1.789°
Eccentric anomaly
1.78942°
Mean motion
0.42619 °/min
Orbital period
844.7 mins
BSTAR
0
Loading maneuver chart data...
Computing Atmospheric mass density...
Loading historical data...
Loading historical data...
Loading historical data...
Loading historical data...
Loading historical data...
Loading historical data...
Loading historical data...
Other satellites on launch #69 in the year 2016 (2016-11-17 UTC)

Documentation

Showing up to 5 results
|